This demonstration page uses our WeatherBlox Daily Observations layout. Learn more.

Left ArrowRight Arrow

Hourly Observations for March 15, 2016

Temp ( °F °C ) Dew Point ( °F °C ) Humidity (%) Winds ( mph kmh ) Pressure ( in mb ) Visibility ( mi km ) Precip ( " mm )
12:20 am 00:20 Cloudy 59 15 55 12.8 87 87 W 3 6 29.77 1008 10 16 N/A
12:53 am 00:53 Cloudy 58 14.4 54 12.2 87 87 WSW 5 7 29.78 1008 10 16 N/A
1:09 am 01:09 Cloudy 58 14.4 55 12.8 90 90 WSW 6 9 29.80 1009 10 16 N/A
1:53 am 01:53 Cloudy 58 14.4 55 12.8 90 90 WSW 7 11 29.79 1009 10 16 N/A
2:53 am 02:53 Cloudy 58 14.4 53 11.7 84 84 W 5 7 29.78 1009 10 16 N/A
3:53 am 03:53 Cloudy 58 14.4 53 11.7 84 84 W 5 7 29.79 1009 10 16 N/A
4:53 am 04:53 Cloudy 57 13.9 53 11.7 87 87 WNW 6 9 29.80 1009 10 16 N/A
5:06 am 05:06 Cloudy 57 13.9 53 11.7 87 87 NW 5 7 29.80 1009 10 16 N/A
5:53 am 05:53 Cloudy 57 13.9 53 11.7 87 87 N N/A 29.80 1009 10 16 N/A
6:53 am 06:53 Cloudy 56 13.3 53 11.7 90 90 N N/A 29.82 1010 10 16 N/A
7:31 am 07:31 Cloudy 56 13.3 53 11.7 90 90 N N/A 29.83 1010 10 16 N/A
7:49 am 07:49 Cloudy 55 13 54 12 94 94 N N/A 29.83 1010 10 16 N/A
7:53 am 07:53 Cloudy 56 13.3 53 11.7 90 90 N N/A 29.83 1010 10 16 N/A
8:53 am 08:53 Cloudy 57 13.9 53 11.7 87 87 N N/A 29.85 1011 10 16 N/A
9:36 am 09:36 Partly Cloudy 59 15 54 12.2 83 83 N N/A 29.85 1011 10 16 N/A
9:53 am 09:53 Mostly Sunny 60 15.6 54 12.2 80 80 N N/A 29.85 1011 10 16 N/A
10:10 am 10:10 Mostly Cloudy 60 15.6 53 11.7 78 78 VRB 3 6 29.85 1011 10 16 N/A
10:53 am 10:53 Mostly Cloudy 62 16.7 53 11.7 73 73 VRB 3 6 29.84 1011 10 16 N/A
11:25 am 11:25 Partly Cloudy 63 17.2 52 11.1 68 68 N N/A 29.85 1011 10 16 N/A
11:53 am 11:53 Partly Cloudy 63 17.2 52 11.1 68 68 N N/A 29.83 1010 10 16 N/A
12:53 pm 12:53 Sunny 67 19.4 53 11.7 61 61 VRB 5 7 29.82 1010 10 16 N/A
1:53 pm 13:53 Partly Cloudy 70 21.1 55 12.8 59 59 SSE 6 9 29.80 1009 10 16 N/A
2:53 pm 14:53 Sunny 71 21.7 55 12.8 57 57 SE 7 11 29.76 1008 10 16 N/A
3:53 pm 15:53 Sunny 73 22.8 54 12.2 51 51 SE 5 7 29.73 1007 10 16 N/A
4:53 pm 16:53 Sunny 74 23.3 53 11.7 48 48 S 9 15 29.70 1006 10 16 N/A
5:53 pm 17:53 Sunny 75 23.9 54 12.2 48 48 VRB 7 11 29.67 1005 10 16 N/A
6:53 pm 18:53 Sunny 75 23.9 53 11.7 46 46 SE 8 13 29.66 1004 10 16 N/A
7:53 pm 19:53 Clear 72 22.2 54 12.2 53 53 VRB 3 6 29.65 1004 10 16 N/A
8:53 pm 20:53 Clear 67 19.4 53 11.7 61 61 E 7 11 29.65 1004 10 16 N/A
9:53 pm 21:53 Clear 63 17.2 53 11.7 70 70 ESE 5 7 29.63 1003 10 16 N/A
10:53 pm 22:53 Clear 64 17.8 52 11.1 65 65 ESE 6 9 29.61 1003 10 16 N/A
11:53 pm 23:53 Clear 68 20 56 13.3 65 65 VRB 6 9 29.58 1002 10 16 N/A

Powered by AerisWeather